Regional Weather Roundup
Issued by NWS

Home | Current Version | Previous Version | Graphics & Text | Print | Product List | Glossary On
Versions: 1 2 3 4 5 6 7 8 9 10 11 12 13 14 15 16 17 18 19 20 21 22 23 24 25 26 27 28 29 30 31 32 33 34 35 36 37 38 39 40 41 42 43 44 45 46 47 48 49 50
662
ASUS43 KLSX 022210
RWRMO

WEATHER SUMMARY FOR MISSOURI
NATIONAL WEATHER SERVICE SPRINGFIELD MO
500 PM CDT MON MAY 02 2016

NOTE: "FAIR" INDICATES FEW OR NO CLOUDS BELOW 12,000 FEET WITH NO
       SIGNIFICANT WEATHER AND/OR OBSTRUCTIONS TO VISIBILITY.
       CURRENT SKY AND/OR WEATHER CONDITIONS ARE NOT AVAILABLE FOR
       CHILLICOTHE AND FARMINGTON.

MOZ001>031-035>038-043-044-053-054-022300-
...NORTHERN AND WESTERN MISSOURI...

CITY           SKY/WX    TMP DP  RH WIND       PRES   REMARKS
KANSAS CTY INT CLOUDY    55  46  71 S3        30.07F
KANSAS C DTWN  CLOUDY    56  45  66 CALM      30.07F
LEE`S SUMMIT   CLOUDY    54  47  77 CALM      30.08S
ST JOSEPH      CLOUDY    60  42  51 CALM      30.06F
CHILLICOTHE      N/A     60  41  49 NE7       30.06S
KIRKSVILLE     CLOUDY    55  46  71 CALM      30.05F

$$
MOZ066>068-077>081-088>096-101>105-022300-
...SOUTHWEST MISSOURI...

CITY           SKY/WX    TMP DP  RH WIND       PRES   REMARKS
SPRINGFIELD    CLOUDY    53  44  71 NW10      30.06F
JOPLIN         CLOUDY    56  45  66 NE6       30.08F
BRANSON        CLOUDY    54  48  82 NW6       30.06F

$$
MOZ032>034-039>042-045>050-055>058-069>072-022300-
...CENTRAL MISSOURI...

CITY           SKY/WX    TMP DP  RH WIND       PRES   REMARKS
COLUMBIA       CLOUDY    54  48  80 NW6       30.05F
JEFFERSON CITY CLOUDY    52  48  86 CALM      30.06S
ROLLA          CLOUDY    53  46  77 NW6       30.03S
SEDALIA        LGT RAIN  53  49  86 N6        30.07S FOG
WARRENSBURG    CLOUDY    54  46  76 W3        30.07F
OSAGE BEACH    CLOUDY    54  39  58 NW5       30.06S

$$
MOZ051-052-059>065-022300-
...EAST CENTRAL MISSOURI...

CITY           SKY/WX    TMP DP  RH WIND       PRES   REMARKS
ST LOUIS INTL  CLOUDY    57  48  72 NW5       30.03S
SPIRIT OF STL  CLOUDY    56  50  80 W5        30.03S
ST CHARLES     LGT RAIN  54  51  90 CALM      30.03S

$$
MOZ072>076-082>087-097>100-106>115-022300-
...SOUTH CENTRAL AND SOUTHEAST MISSOURI...

CITY           SKY/WX    TMP DP  RH WIND       PRES   REMARKS
CAPE GIRARDEAU CLOUDY    62  50  64 N9        29.98F
FARMINGTON     CLOUDY    58  47  66 N9G16     30.01F
POPLAR BLUFF   PTSUNNY   68  50  52 VRB5      29.96F
WEST PLAINS    CLOUDY    60  45  57 NW8       30.03F

$$




USA.gov is the U.S. government's official web portal to all federal, state and local government web resources and services.